This is the latest recevied weather packets stored in our database for station/object KK4KTV-13. If no packets are shown the sender has not sent any weather packets the latest 10 day(s).
| Time | Temp. | Humidity | Pressure | Rain* | Wind** | Luminosity | Snow |
|---|---|---|---|---|---|---|---|
| 1777420545 | 20.56° C | 91% | 1012.9 hPa | 0 mm | - | 6 W/m² | - |
| 1777420242 | 21.11° C | 91% | 1012.9 hPa | 0 mm | - | 7 W/m² | - |
| 1777419937 | 21.11° C | 90% | 1012.8 hPa | 0 mm | - | 10 W/m² | - |
| 1777419635 | 21.67° C | 90% | 1012.5 hPa | 0 mm | - | 13 W/m² | - |
| 1777419333 | 21.67° C | 88% | 1012.5 hPa | 0 mm | - | 16 W/m² | - |
| 1777419032 | 22.22° C | 86% | 1012.6 hPa | 0 mm | - | 20 W/m² | - |
| 1777418731 | 22.22° C | 85% | 1012.6 hPa | 0 mm | - | 25 W/m² | - |
| 1777418428 | 22.78° C | 84% | 1012.8 hPa | 0 mm | - | 31 W/m² | - |
| 1777418124 | 22.78° C | 82% | 1012.6 hPa | 0 mm | - | 33 W/m² | - |
| 1777417821 | 22.78° C | 82% | 1012.9 hPa | 0 mm | - | 34 W/m² | - |
| 1777417521 | 22.78° C | 82% | 1013.1 hPa | 0 mm | - | 40 W/m² | - |
| 1777417218 | 22.78° C | 81% | 1013.2 hPa | 0 mm | - | 48 W/m² | - |
| 1777416914 | 22.78° C | 81% | 1013.1 hPa | 0 mm | - | 56 W/m² | - |
| 1777416609 | 23.33° C | 81% | 1013 hPa | 0 mm | - | 64 W/m² | - |
| 1777416306 | 23.33° C | 80% | 1013.1 hPa | 0 mm | - | 76 W/m² | - |
| 1777416004 | 23.33° C | 80% | 1012.8 hPa | 0 mm | - | 86 W/m² | - |
| 1777415701 | 23.33° C | 79% | 1013 hPa | 0 mm | - | 90 W/m² | - |
| 1777415396 | 23.33° C | 79% | 1013 hPa | 0 mm | - | 104 W/m² | - |
| 1777415096 | 23.33° C | 78% | 1012.9 hPa | 0 mm | - | 111 W/m² | - |
| 1777414796 | 23.33° C | 79% | 1012.9 hPa | 0 mm | - | 103 W/m² | - |
| 1777414492 | 23.89° C | 77% | 1012.6 hPa | 0 mm | - | 98 W/m² | - |
| 1777414191 | 23.89° C | 76% | 1012.5 hPa | 0 mm | - | 105 W/m² | - |
| 1777413887 | 24.44° C | 75% | 1012.6 hPa | 0 mm | - | 178 W/m² | - |
| 1777413582 | 23.89° C | 75% | 1012.4 hPa | 0 mm | - | 204 W/m² | - |
| 1777413279 | 24.44° C | 75% | 1012.6 hPa | 0 mm | - | 158 W/m² | - |
* Rain latest hour (hover to see other rain measurements)
** Current wind speed in m/s (hover to see current wind gust speed)